Location: Newark
(43.6583°N, 1.6617°E)
Time: 06:23:17
(UTC+00:00)

Tiros 1 - Pass Details

Date: 26 August 2019
Orbit: 631 x 664 km, 48.4° (Epoch: 16 September)

Event Time Altitude Azimuth Distance (km) Brightness Sun altitude
Rises 04:23:52 0° 293° (WNW) 2,934 - -8.7°
Exits shadow 04:24:12 - 292° (WNW) 2,809 10.0 -8.6°
Reaches altitude 10° 04:26:15 10° 287° (WNW) 2,028 9.3 -8.3°
Maximum altitude 04:30:43 46° 215° (SW) 863 7.5 -7.5°
Drops below altitude 10° 04:35:12 10° 142° (SE) 2,039 9.9 -6.8°
Sets 04:37:36 0° 136° (SE) 2,952 10.9 -6.4°
